SIA7922 WSSS-VHHH

Flight info

Callsign SIA7922
Flight time N/A
Altitude 31000
Route VMR6A VMR M771 DUDIS/K0935F310 M771 DAGAG/K0932F320 M771 DOSUT/N0500F320 M771 DULOP/N0502F310 Q1 CARSO/N0499F320 V551 BETTY BETTY3A
Aircraft B744/H-SDE1E2E3FGHIJ2J3J4J5M1RWXY/LB1D1

Departure

Time N/A
Airport Singapore Changi Airport (WSSS)

Arrival

Time 2026-05-05 05:30
Airport Hong Kong International Airport (VHHH)
Time Latitude Longitude Altitude Speed Heading
2026-05-05 05:18 21.67175 113.89667 11310 ft 363 kts 342°
2026-05-05 05:19 21.69615 113.88990 10867 ft 360 kts 342°
2026-05-05 05:19 21.72028 113.88322 10434 ft 357 kts 343°
2026-05-05 05:19 21.74399 113.87666 9991 ft 354 kts 343°
2026-05-05 05:19 21.76772 113.87008 9557 ft 351 kts 343°
2026-05-05 05:20 21.79125 113.86355 9121 ft 348 kts 344°
2026-05-05 05:20 21.81460 113.85706 8687 ft 345 kts 344°
2026-05-05 05:20 21.83773 113.85064 8261 ft 342 kts 345°
2026-05-05 05:20 21.86069 113.84427 7841 ft 339 kts 345°
2026-05-05 05:21 21.88339 113.83797 7434 ft 335 kts 345°
2026-05-05 05:21 21.90589 113.83173 7025 ft 332 kts 345°
2026-05-05 05:21 21.92813 113.82553 6614 ft 331 kts 345°
2026-05-05 05:21 21.95031 113.81937 6050 ft 325 kts 345°
2026-05-05 05:22 21.97223 113.81330 5204 ft 325 kts 345°
2026-05-05 05:22 21.99382 113.80728 4712 ft 315 kts 346°
2026-05-05 05:22 22.01436 113.80155 4480 ft 293 kts 346°
2026-05-05 05:22 22.03335 113.79625 4309 ft 271 kts 347°
2026-05-05 05:23 22.05091 113.79134 4163 ft 250 kts 347°
2026-05-05 05:23 22.06707 113.78684 3975 ft 231 kts 348°
2026-05-05 05:23 22.07716 113.78402 3771 ft 221 kts 348°
2026-05-05 05:23 22.09644 113.77866 3592 ft 208 kts 349°
2026-05-05 05:24 22.10563 113.77610 3583 ft 203 kts 347°
2026-05-05 05:24 22.11857 113.77070 3423 ft 196 kts 338°
2026-05-05 05:24 22.13070 113.76442 3332 ft 195 kts 338°
2026-05-05 05:24 22.14310 113.75808 3074 ft 198 kts 339°
2026-05-05 05:25 22.15553 113.75175 2828 ft 196 kts 339°
2026-05-05 05:25 22.16777 113.74558 2565 ft 191 kts 339°
2026-05-05 05:25 22.17969 113.73960 2333 ft 188 kts 338°
2026-05-05 05:25 22.19155 113.73373 2102 ft 186 kts 343°
2026-05-05 05:26 22.20370 113.73350 1984 ft 175 kts 27°
2026-05-05 05:26 22.21439 113.74011 1991 ft 182 kts 30°
2026-05-05 05:26 22.22577 113.74655 1902 ft 184 kts 28°
2026-05-05 05:26 22.23707 113.75289 1843 ft 183 kts 28°
2026-05-05 05:27 22.24808 113.76046 1774 ft 192 kts 49°
2026-05-05 05:27 22.25456 113.77281 1736 ft 186 kts 67°
2026-05-05 05:27 22.26359 113.79708 1613 ft 160 kts 71°
2026-05-05 05:28 22.26717 113.80804 1600 ft 152 kts 72°
2026-05-05 05:28 22.27068 113.81887 1620 ft 154 kts 72°
2026-05-05 05:28 22.27425 113.82997 1373 ft 156 kts 71°
2026-05-05 05:28 22.27776 113.84085 1168 ft 154 kts 72°
2026-05-05 05:29 22.28127 113.85171 971 ft 153 kts 72°
2026-05-05 05:29 22.28476 113.86251 773 ft 153 kts 71°
2026-05-05 05:29 22.28828 113.87342 578 ft 154 kts 72°
2026-05-05 05:29 22.29180 113.88430 367 ft 153 kts 71°
2026-05-05 05:30 22.29530 113.89514 161 ft 153 kts 71°
2026-05-05 05:30 22.29879 113.90597 41 ft 147 kts 68°
2026-05-05 05:30 22.30169 113.91497 42 ft 101 kts 71°
2026-05-05 05:30 22.30332 113.91999 42 ft 39 kts 71°
2026-05-05 05:31 22.30363 113.92308 43 ft 41 kts 101°
2026-05-05 05:31 22.30327 113.92530 41 ft 23 kts 88°
2026-05-05 05:31 22.30352 113.92667 41 ft 16 kts 114°
2026-05-05 05:31 22.30259 113.92725 41 ft 16 kts 165°
2026-05-05 05:32 22.30162 113.92709 41 ft 16 kts 237°
2026-05-05 05:32 22.30124 113.92599 41 ft 16 kts 251°
2026-05-05 05:32 22.30090 113.92489 41 ft 13 kts 264°
2026-05-05 05:32 22.30153 113.92439 41 ft 12 kts 341°
2026-05-05 05:33 22.30171 113.92432 41 ft 0 kts 341°